"Pseudo-MPEC" for P21DeCi

Created 2023 Jan 27 5:22:20 UT using Find_Orb

Click here for an explanation of pseudo-MPECs

 
 Astrometry: 
     P21DeCi* C2023 01 249Y;!SU-^6SAstrometry;)redacted;ZX0CctA8^GR;BGEX6oKIdF52
     P21DeCi  C2023 01 24@3;VfV9!i/e2r_SexU=mwe8/!aZ$K:k'A!GRnHA$3-Ps;oqp3dmRF52
     P21DeCi  C2023 01 24VV-=j1h*k413iclickX?^'`:mlg.b8XOV%[f[B)KSL/x:@e)S*g4F52
     P21DeCi  C2023 01 24j)(8PplbYAs8V_txCy+o/)/)o8\yZpDcy\mI6_1IZ*b6D64g5?6DF52
     P21DeCi  C2023 01 24IE(7dqq5;5here4Q\7BBHk-S9+iMrYG.Wp-_hDJ_p_U_M`Ad(=ftF52
     P21DeCi  C2023 01 24tM'3XK:P*;^a1E!SjK9:dHS7.NUklA?@o-MKGX/=pKNL\`wO;wS,F52
     P21DeCi KC2023 01 26_[a*M\Im+J3Ok_s;0for!W\]=32qN/$4I`OSg1W5='iPVEuo6%@HH36
     P21DeCi KC2023 01 26;#eN67Vy;DUs0C+g2H!RX!'N?=-9?I=_Q-v.`kR=GLMD1:V31?t2H36
     P21DeCi KC2023 01 26F,=0E]3Bd#rLdcY'explanation0_..p)*HlpHoeYlxVBp]`ZAD!H36

Station data:
(F52) Pan-STARRS 2, Haleakala  (N20.707382 W156.255910)  US/Hawaii.
   Observers J. Bulger, T. Dukes, T. Lowe, A. Schultz, M. Willman. Measurers
   K. Chambers, S. Chastel, T. de Boer, L. Denneau, J. Fairlamb, H.
   Flewelling, M. Huber, C.-C. Lin, E. Magnier, Y. Ramanjooloo, R. Wainscoat,
   R. Weryk. 1.8-m Ritchey-Chrétien + CCD.
(H36) Sandlot Observatory, Scranton  (N38.797690 W95.706400)  US/Kansas.
   Observer G. Hug. 0.56-m reflector + CCD.

Orbital elements:  P21DeCi
   Perihelion 2023 Apr 11.16637 +/- 0.447 TT =  3:59:34 (JD 2460045.66637)
Epoch 2023 Jan 26.0 TT = JDT 2459970.5   Earth MOID: 0.2510   Ma: 0.0440
M 341.99118746 +/- 1.3              (J2000 ecliptic)             AutoNEOCP
n   0.23958604 +/- 0.0173           Peri.  101.09397 +/- 0.8
a   2.56740890 +/- 0.124            Node    93.97338 +/- 0.57
e   0.5978720 +/- 0.0201            Incl.   19.63149 +/- 0.6
P   4.11                   H 20.96  G  0.15   U 10.0
q 1.03242676 +/- 0.00881    Q 4.10239103 +/- 0.248
From 9 observations 2023 Jan. 24-26; mean residual 0".24
Residuals in arcseconds: 
230124 F52  .01-  .18-    230124 F52  .04-  .13+    230126 H36  .32+  .32-    
230124 F52  .16+  .01-    230124 F52  .03-  .07+    230126 H36  .25+  .23-    
230124 F52  .12-  .02-    230124 F52  .03+  .02+    230126 H36  .56-  .54+    

Ephemerides (geocentric):
Date (UTC) HH   RA             Dec           delta  r     elong  mag " sig PA
---- --------  ------------   ------------  ------ ------ -----  --- --------
2023 01 27 05  08 03 12.214   +51 56 45.73  .45250 1.3833 146.0 21.1 .399  91
2023 01 27 06  08 03 08.347   +51 58 56.72  .45234 1.3829 146.0 21.1 .404  91
2023 01 27 07  08 03 04.474   +52 01 07.71  .45218 1.3826 145.9 21.1 .410  91
2023 01 27 08  08 03 00.594   +52 03 18.69  .45202 1.3823 145.9 21.1 .415  91
2023 01 27 09  08 02 56.707   +52 05 29.68  .45185 1.3820 145.8 21.1 .421  91
2023 01 27 10  08 02 52.814   +52 07 40.67  .45169 1.3817 145.8 21.1 .426  91
2023 01 27 11  08 02 48.914   +52 09 51.66  .45153 1.3814 145.7 21.1 .432  91
2023 01 27 12  08 02 45.008   +52 12 02.66  .45138 1.3811 145.7 21.1 .437  92
2023 01 27 13  08 02 41.095   +52 14 13.65  .45122 1.3807 145.6 21.1 .443  92
2023 01 27 14  08 02 37.175   +52 16 24.64  .45106 1.3804 145.5 21.1 .449  92
2023 01 27 15  08 02 33.249   +52 18 35.62  .45090 1.3801 145.5 21.1 .455  92
2023 01 27 16  08 02 29.316   +52 20 46.61  .45074 1.3798 145.4 21.1 .461  92
2023 01 27 17  08 02 25.376   +52 22 57.60  .45058 1.3795 145.4 21.1 .466  92
2023 01 27 18  08 02 21.430   +52 25 08.58  .45043 1.3792 145.3 21.1 .472  92
2023 01 27 19  08 02 17.477   +52 27 19.57  .45027 1.3788 145.3 21.1 .479  92
2023 01 27 20  08 02 13.518   +52 29 30.55  .45011 1.3785 145.2 21.1 .485  93
2023 01 27 21  08 02 09.552   +52 31 41.53  .44996 1.3782 145.2 21.1 .491  93
2023 01 27 22  08 02 05.579   +52 33 52.50  .44980 1.3779 145.1 21.1 .497  93
2023 01 27 23  08 02 01.600   +52 36 03.47  .44965 1.3776 145.0 21.1 .504  93
2023 01 28 00  08 01 57.614   +52 38 14.44  .44949 1.3773 145.0 21.1 .510  93
2023 01 28 01  08 01 53.622   +52 40 25.41  .44934 1.3770 144.9 21.1 .517  94
2023 01 28 02  08 01 49.623   +52 42 36.37  .44918 1.3766 144.9 21.1 .523  94
2023 01 28 03  08 01 45.617   +52 44 47.33  .44903 1.3763 144.8 21.1 .530  94
2023 01 28 04  08 01 41.605   +52 46 58.28  .44888 1.3760 144.8 21.1 .537  94
2023 01 28 05  08 01 37.586   +52 49 09.23  .44872 1.3757 144.7 21.1 .544  94
2023 01 28 06  08 01 33.560   +52 51 20.17  .44857 1.3754 144.7 21.1 .551  95
2023 01 28 07  08 01 29.528   +52 53 31.11  .44842 1.3751 144.6 21.1 .558  95
2023 01 28 08  08 01 25.489   +52 55 42.04  .44827 1.3748 144.5 21.1 .565  95
2023 01 28 09  08 01 21.444   +52 57 52.96  .44812 1.3744 144.5 21.1 .572  95
2023 01 28 10  08 01 17.392   +53 00 03.88  .44797 1.3741 144.4 21.1 .580  96
2023 01 28 11  08 01 13.333   +53 02 14.79  .44782 1.3738 144.4 21.1 .587  96
2023 01 28 12  08 01 09.268   +53 04 25.70  .44767 1.3735 144.3 21.1 .595  96
2023 01 28 13  08 01 05.196   +53 06 36.60  .44752 1.3732 144.3 21.1 .602  96
2023 01 28 14  08 01 01.118   +53 08 47.49  .44737 1.3729 144.2 21.1 .610  97
2023 01 28 15  08 00 57.032   +53 10 58.37  .44722 1.3726 144.2 21.1 .618  97
2023 01 28 16  08 00 52.941   +53 13 09.24  .44707 1.3722 144.1 21.1 .626  97
2023 01 28 17  08 00 48.842   +53 15 20.11  .44692 1.3719 144.0 21.1 .635  97
2023 01 28 18  08 00 44.738   +53 17 30.97  .44677 1.3716 144.0 21.1 .643  98
2023 01 28 19  08 00 40.626   +53 19 41.82  .44662 1.3713 143.9 21.1 .651  98
2023 01 28 20  08 00 36.508   +53 21 52.66  .44648 1.3710 143.9 21.1 .660  98
2023 01 28 21  08 00 32.383   +53 24 03.49  .44633 1.3707 143.8 21.1 .669  98
2023 01 28 22  08 00 28.252   +53 26 14.31  .44618 1.3704 143.8 21.1 .678  99
2023 01 28 23  08 00 24.114   +53 28 25.12  .44604 1.3700 143.7 21.1 .687  99
2023 01 29 00  08 00 19.969   +53 30 35.92  .44589 1.3697 143.6 21.1 .696  99
2023 01 29 01  08 00 15.818   +53 32 46.71  .44575 1.3694 143.6 21.1 .705 100
2023 01 29 02  08 00 11.660   +53 34 57.49  .44560 1.3691 143.5 21.1 .714 100
2023 01 29 03  08 00 07.496   +53 37 08.25  .44546 1.3688 143.5 21.1 .724 100
2023 01 29 04  08 00 03.325   +53 39 19.01  .44531 1.3685 143.4 21.1 .734 100